Home > Weather > Kirkland Lake > Past weeks

Flag for Canada Past Weather in Kirkland Lake, Ontario, Canada — Yesterday and Last 2 Weeks

Now
57 °F

Clear.


Feels Like: 57 °F
Forecast: 49 / 71 °F
Wind: 3 mph from North

Location: Earlton

Current Time: Aug 26, 2016 at 11:25:47 PM

Latest Report: Aug 26, 2016 at 10:00 PM


Visibility: 9 mi

Pressure: 30.16 "Hg

Humidity: 94%

Dew Point: 55 °F

Location of Kirkland LakeLocation

Past Weather in Kirkland Lake — Graph

°F

Kirkland Lake Temperature Yesterday

Maximum temperature yesterday: 77 °F (at 4:00 PM)
Minimum temperature yesterday: 66 °F (at 1:00 AM)
Average temperature yesterday: 69 °F

High & Low Weather Summary for the Past Weeks

 TemperatureHumidityPressure
High82 °F (Aug 19, 3:00 PM)100% (Aug 12, 4:03 AM)30.16 "Hg (Aug 12, 4:03 AM)
Low46 °F (Aug 22, 2:00 AM)39% (Aug 15, 6:00 PM)29.36 "Hg (Aug 21, 4:00 AM)
Average65 °F82%29.91 "Hg
* Reported Aug 11 10:00 PM — Aug 26 10:00 PM, Kirkland Lake, Weather by CustomWeather, © 2016

Note: Actual official high and low records may vary slightly from our data, if they occured in-between our weather recording intervals... More about our weather records

Advertising

Kirkland Lake Weather History for the Previous 24 Hours

Scroll right to see more
 ConditionsComfort  
Time TempWeatherWind HumidityBarometerVisibility
10:00 PM
Fri, Aug 26
57 °FClear.3 mph94%30.16 "Hg9 mi
9:00 PM57 °FSunny.6 mph94%30.14 "Hg9 mi
8:00 PM61 °FPassing clouds.3 mph83%30.12 "Hg9 mi
7:00 PM64 °FOvercast.6 mph78%30.10 "Hg9 mi
6:00 PM64 °FOvercast.8 mph78%30.11 "Hg9 mi
5:00 PM66 °FOvercast.8 mph73%30.09 "Hg9 mi
4:00 PM68 °FOvercast.9 mph69%30.08 "Hg9 mi
3:00 PM68 °FOvercast.10 mph69%30.06 "Hg9 mi
2:00 PM68 °FOvercast.13 mph69%30.05 "Hg9 mi
1:00 PM66 °FMore clouds than sun.13 mph73%30.05 "Hg9 mi
12:00 PM66 °FOvercast.10 mph73%30.04 "Hg9 mi
11:00 AM66 °FBroken clouds.9 mph73%30.01 "Hg9 mi
10:00 AM64 °FPassing clouds.16 mph78%29.99 "Hg9 mi
9:00 AM64 °FSunny.12 mph78%29.98 "Hg9 mi
8:00 AM63 °FScattered clouds.10 mph77%29.97 "Hg9 mi
7:00 AM57 °FClear.8 mph88%29.96 "Hg9 mi
6:00 AM57 °FClear.7 mph88%29.93 "Hg9 mi
5:00 AM59 °FPassing clouds.10 mph82%29.90 "Hg9 mi
4:00 AM59 °FClear.10 mph82%29.89 "Hg9 mi
3:00 AM59 °FClear.8 mph82%29.89 "Hg9 mi
2:00 AM61 °FClear.7 mph83%29.87 "Hg9 mi
1:00 AM64 °FClear.9 mph73%29.86 "Hg9 mi
12:00 AM66 °FClear.7 mph73%29.85 "Hg9 mi
11:00 PM
Thu, Aug 25
70 °FPassing clouds.14 mph73%29.84 "Hg9 mi
Weather by CustomWeather, © 2016

See weather overviewHow to use our weather pages